User: anonymous   Login
Location: Unnamed
(51.8936°N, 11.0665°E)
Time: 14:23:17
(UTC+02:00)
Language:

KAITUO 1B - Orbit

View from above orbital plane
View from above orbital plane
View from above satellite
View from above satellite

Ground track
Ground track

The orbit data is extracted from the following two-line orbital elements,

1 40912U 15049P   21264.24218840  .00002130  00000-0  96186-4 0  9999
2 40912  97.4450 272.8571 0014603 160.6405 259.1813 15.21992991332763
Epoch (UTC): 21 September 2021 05:48:45
Eccentricity: 0.0014603
inclination: 97.4450°
perigee height: 490 km
apogee height: 510 km
right ascension of ascending node: 272.8571°
argument of perigee: 160.6405°
revolutions per day: 15.21992991
mean anomaly at epoch: 259.1813°
orbit number at epoch: 33276

The dashed part of the orbit path shows where the satellite is in the earth's shadow,  

DLR